GFSMW_700_rhum_036.txt.gz
RH
22 26 22 20 17 14 10 8 9 12 16 28 41 40 38 45 52 52 46 45 48 44 41 46 49 54 54 51 52 65 68 66 65 63 58 62 68 66 63 60 61 63 65
26 39 20 15 13 11 10 9 10 11 12 16 17 30 25 21 22 26 40 52 48 46 47 44 46 51 51 53 56 52 64 71 74 70 68 68 68 67 67 65 64 65 68
18 20 13 11 10 10 11 12 12 13 13 14 15 15 19 18 15 14 18 23 40 51 47 44 49 47 58 58 58 64 63 69 76 75 78 71 65 67 73 70 68 70 73
15 13 12 11 12 12 14 14 15 16 17 18 18 20 22 25 29 29 26 26 28 31 36 44 44 51 54 70 71 66 70 74 73 74 70 78 80 76 74 75 76 81 78
14 14 14 16 14 16 17 20 21 20 18 18 18 20 24 28 30 31 27 21 18 16 24 38 43 49 56 65 77 82 79 72 73 72 73 74 77 82 85 85 86 94 81
26 25 23 24 23 25 25 24 21 18 18 18 18 17 17 17 18 19 19 18 18 17 40 38 45 55 55 64 69 71 78 77 74 73 79 84 87 87 96 98 94 96 99
24 23 24 27 26 24 21 20 20 20 20 19 18 19 18 19 21 23 24 24 25 28 34 38 43 54 61 66 70 70 72 75 72 74 72 80 87 95 99 99 99 98 99
27 28 28 27 25 23 23 22 23 24 24 25 27 30 31 32 32 32 31 31 32 32 32 42 32 32 40 50 61 65 69 74 76 78 78 76 78 80 88 100 99 98 100
30 28 28 26 25 24 24 30 33 33 33 31 30 30 28 28 31 40 40 36 36 36 37 37 36 36 36 39 44 50 53 55 60 66 77 84 82 85 85 94 99 99 99
33 35 38 41 39 38 38 36 33 29 25 20 17 16 15 17 20 25 43 49 49 46 45 44 42 41 41 44 46 48 53 57 58 60 65 72 85 92 92 97 99 89 100
48 50 49 44 42 42 39 32 25 27 31 26 21 18 18 18 20 22 23 27 34 38 51 58 56 55 56 56 58 57 55 59 66 86 90 73 75 88 94 99 99 99 100
60 60 56 51 42 37 31 27 32 34 36 36 32 31 34 39 45 47 42 41 42 45 50 58 69 70 67 65 60 57 68 82 68 52 55 72 88 87 97 100 100 100 98
65 66 60 50 37 34 31 29 29 31 34 39 40 39 41 49 51 48 36 35 42 40 48 55 67 73 71 67 67 69 85 83 83 80 49 51 54 80 98 100 100 100 100
66 60 56 52 44 41 37 36 39 40 41 39 39 44 44 49 46 21 16 20 25 42 57 65 69 68 67 71 74 76 80 81 71 62 50 43 50 55 99 99 97 99 99
68 62 54 49 46 42 41 42 42 41 42 42 44 38 37 23 16 18 17 17 27 34 37 50 54 57 58 65 65 68 69 71 60 48 46 58 69 90 76 100 100 100 89
65 60 54 53 49 44 43 43 46 50 50 44 46 33 22 19 21 21 23 26 26 31 34 38 42 42 49 51 54 59 62 57 48 50 63 100 100 93 92 89 81 100 99
62 56 56 54 51 46 42 43 46 50 51 43 30 32 34 32 28 29 32 29 28 33 34 37 36 39 44 50 58 74 75 75 82 84 92 100 100 100 100 100 100 100 100
61 58 57 53 48 45 43 43 43 47 45 44 45 49 49 46 46 43 40 39 38 47 50 62 59 68 75 83 88 93 90 93 94 96 99 96 96 100 99 97 97 93 59
64 59 60 54 51 48 46 44 45 48 48 48 47 48 52 54 54 54 60 66 66 72 77 70 73 80 89 100 93 95 92 97 99 97 100 100 99 100 98 72 32 24 19
71 63 62 58 52 52 51 40 43 45 41 34 40 44 47 44 42 47 57 62 66 71 73 73 71 61 53 59 57 53 56 48 44 45 49 43 27 25 24 20 14 6 2
76 71 68 62 58 60 55 40 31 29 25 23 22 23 24 26 29 30 31 32 35 38 31 26 25 20 12 6 5 4 4 4 6 8 8 7 4 3 2 2 2 2 2
84 79 72 71 70 67 61 47 27 25 24 22 23 27 31 31 31 30 28 26 25 25 23 15 8 6 4 3 3 2 2 2 2 2 2 2 2 2 2 2 2 2 4
89 90 82 81 82 77 71 62 32 26 23 22 27 30 32 32 30 28 26 26 27 22 18 13 9 7 5 4 3 3 2 2 2 2 3 3 2 2 2 2 3 4 6
97 96 94 92 90 88 85 75 58 28 25 24 28 31 33 32 31 28 28 29 27 23 20 17 13 9 7 5 4 3 3 2 2 3 3 3 3 3 3 3 4 6 10
95 98 99 99 97 92 92 87 77 52 27 24 27 31 34 33 32 31 31 32 29 26 24 21 18 16 12 8 6 5 4 4 3 3 3 3 3 3 4 4 6 9 16
85 98 100 100 99 99 99 94 88 79 41 26 26 30 33 34 34 33 35 34 32 31 29 27 25 22 17 12 7 6 5 4 3 3 3 3 3 4 5 7 10 17 28

GFSMW_700_rhum_039.txt.gz
RH
39 37 36 33 28 28 24 20 17 16 12 10 10 12 19 33 45 48 46 49 49 47 43 47 51 53 49 47 49 51 57 56 62 75 72 71 71 66 60 63 66 65 66
30 28 27 26 24 23 23 21 17 14 12 11 11 10 10 10 13 20 34 40 41 40 38 38 42 49 51 54 55 57 58 56 61 67 74 78 78 72 68 66 68 69 70
18 18 18 16 15 16 17 15 13 12 12 13 14 14 14 13 13 14 16 19 25 32 36 33 42 39 46 47 56 64 62 65 64 69 74 75 75 77 74 76 76 74 75
16 14 14 13 13 16 14 13 13 13 14 14 15 16 17 18 20 20 21 21 25 29 33 40 40 43 48 45 47 54 57 61 68 76 74 75 79 81 79 71 76 81 82
18 18 16 13 12 14 14 13 14 16 18 19 20 18 18 19 20 22 23 21 18 18 20 22 23 31 41 52 52 52 55 59 88 92 78 85 86 84 83 82 77 80 87
15 16 17 16 16 16 17 18 20 21 20 20 19 18 18 17 16 16 17 17 17 17 16 16 18 31 45 46 56 65 67 69 99 99 99 99 91 91 89 80 84 91 90
22 21 24 24 25 24 25 24 22 21 20 18 17 15 14 15 16 19 20 22 24 26 28 28 39 32 52 45 38 48 56 64 72 80 94 99 90 98 93 93 87 90 92
27 26 24 23 24 22 22 21 19 18 18 18 18 19 22 25 27 28 31 36 37 36 35 34 33 33 34 34 34 34 36 40 46 54 62 70 95 91 91 96 98 98 98
29 29 27 26 26 24 23 20 19 19 20 25 30 31 31 29 28 27 25 24 25 30 36 41 40 39 40 41 41 40 38 37 41 48 55 60 62 64 70 77 94 98 99
32 30 30 29 28 28 28 29 31 31 32 31 26 20 18 18 16 14 14 14 15 16 19 31 45 50 51 52 51 51 49 48 51 54 58 66 73 85 97 95 93 93 99
31 40 48 44 40 39 37 35 36 35 31 24 25 29 28 23 20 21 24 31 33 32 32 36 40 44 51 56 61 64 65 64 56 55 54 57 65 66 87 99 100 99 100
50 60 56 48 43 42 41 38 35 31 26 26 31 32 32 29 31 34 37 45 46 41 41 42 43 48 51 48 60 72 70 67 65 65 81 72 81 75 59 88 96 99 98
62 62 59 50 47 46 41 34 31 28 26 27 30 32 36 38 42 43 46 46 41 26 30 36 39 37 40 47 57 65 60 57 68 74 81 87 75 72 70 51 79 96 99
66 66 60 54 49 45 42 39 35 32 36 36 38 40 41 41 42 47 38 17 22 24 27 26 25 27 32 40 46 46 49 58 62 69 76 71 60 52 57 79 78 90 90
65 65 61 52 51 46 41 39 38 38 39 38 42 44 38 32 22 19 18 19 19 18 18 21 25 28 32 35 39 41 46 52 58 64 57 58 65 55 85 100 100 100 99
66 64 59 55 51 46 42 40 39 44 48 48 46 44 31 26 26 23 22 22 22 21 21 24 27 27 29 31 35 40 44 44 48 52 55 59 80 73 100 100 100 99 99
66 60 56 56 50 45 40 38 37 45 48 42 38 36 39 38 36 31 30 29 31 29 28 34 50 48 55 62 62 62 59 68 69 65 68 85 99 90 100 98 97 100 98
66 57 56 55 50 47 42 38 44 45 43 39 35 35 41 46 47 48 48 53 55 47 54 57 62 54 62 67 69 72 78 83 86 95 95 99 98 97 98 97 98 97 72
66 61 60 57 53 51 45 37 42 44 41 37 36 38 39 31 31 36 43 50 56 64 69 59 54 41 37 39 38 24 14 15 19 29 48 60 67 68 46 31 24 20 15
75 69 61 58 55 54 50 38 33 32 26 22 22 23 22 24 26 28 34 46 46 45 39 28 22 8 4 3 3 2 2 2 2 2 2 2 2 2 2 2 2 2 2
77 74 66 62 59 59 56 43 27 24 23 21 22 24 28 29 29 29 27 26 25 25 23 15 8 6 6 5 4 4 3 3 2 2 2 2 3 3 2 2 2 2 2
82 79 75 72 69 66 62 54 31 25 24 22 24 28 31 31 30 27 25 25 26 24 18 15 12 10 9 8 7 6 5 4 4 3 3 3 3 3 3 3 2 2 3
91 88 85 83 82 78 72 66 52 28 25 23 26 29 32 32 30 28 27 27 28 25 22 20 17 16 14 14 12 10 7 6 5 5 4 3 3 3 3 3 3 3 3
97 97 97 93 90 88 86 82 72 57 30 25 26 28 31 33 32 30 29 30 30 28 25 24 23 23 22 21 19 14 10 8 6 5 4 3 3 3 3 3 3 4 4
93 93 96 98 100 96 95 94 85 79 61 30 25 28 30 33 34 33 32 34 34 33 32 31 32 32 31 29 27 22 14 9 7 6 6 4 4 4 4 4 5 6 8
83 83 91 100 99 99 99 99 96 94 86 63 30 26 29 32 34 34 35 37 38 37 37 38 38 38 38 37 32 26 17 9 6 6 5 4 4 4 6 8 10 12 15

GFSMW_700_rhum_042.txt.gz
RH
34 33 31 35 37 34 31 30 26 23 20 18 17 16 15 19 25 32 37 41 47 45 44 51 50 42 41 44 46 56 55 60 62 66 63 61 62 65 68 76 76 70 69
37 37 36 38 36 35 36 34 31 27 25 22 19 15 12 11 12 14 16 18 21 26 31 37 37 35 36 42 46 50 50 65 70 80 84 82 68 58 64 71 78 76 78
34 30 34 40 38 35 29 26 26 27 24 20 17 13 11 10 10 12 14 15 18 21 34 55 30 27 24 27 36 46 58 62 64 73 75 76 67 69 67 74 76 78 76
32 32 26 22 21 19 17 17 21 21 19 16 14 14 14 14 14 14 15 17 21 24 27 32 34 36 35 33 34 39 48 47 49 59 64 73 75 82 76 75 82 80 77
27 23 21 20 17 16 17 19 18 16 14 15 15 15 16 17 18 19 18 17 17 16 18 23 25 27 26 25 30 31 35 32 47 52 57 65 66 64 86 91 97 88 92
27 24 17 14 14 16 17 16 15 16 17 17 18 17 18 18 18 17 16 15 14 14 14 15 17 19 21 32 55 69 57 54 53 67 71 76 73 72 99 94 94 99 100
28 24 21 19 16 15 16 18 19 19 20 20 20 19 18 17 15 14 14 15 16 18 21 24 26 29 30 31 51 32 37 36 36 37 37 41 46 50 65 73 88 89 99
29 25 25 25 24 24 23 23 22 20 20 18 17 15 14 14 14 15 20 25 28 31 34 35 36 38 38 38 36 36 36 38 38 39 39 38 41 50 58 62 67 66 90
28 30 29 26 25 24 22 21 19 19 18 18 17 16 18 22 26 26 27 26 25 24 22 20 27 41 46 44 43 44 45 44 46 48 47 47 47 50 51 55 64 70 97
30 26 27 28 27 25 23 22 20 20 22 25 27 29 30 27 21 19 19 16 14 14 14 18 23 28 36 46 49 48 48 46 48 53 57 59 60 58 58 61 62 67 80
32 30 32 30 28 29 31 31 29 28 30 32 33 32 27 22 26 27 25 21 20 24 32 37 37 36 39 40 40 39 42 49 52 58 67 64 65 65 68 70 66 76 78
35 34 44 47 46 47 46 43 37 34 33 33 32 28 24 28 31 31 29 30 34 37 44 48 43 38 34 34 35 37 38 44 48 56 60 58 66 68 72 73 90 99 79
47 55 60 58 53 50 48 43 39 32 30 30 27 25 27 29 32 36 37 39 43 46 49 42 25 25 27 25 25 28 31 39 41 42 46 53 64 65 62 65 68 72 91
68 66 63 61 59 52 46 44 40 36 36 33 33 36 38 40 39 38 38 41 42 29 20 21 19 18 18 20 24 27 33 37 40 42 46 50 60 59 56 58 54 84 94
68 66 66 62 53 51 48 42 38 37 38 40 40 40 40 42 39 34 22 20 19 19 21 18 17 20 22 22 25 29 30 33 35 37 42 52 57 52 54 62 73 86 94
69 67 66 61 54 51 47 42 38 39 43 48 46 45 42 32 28 30 27 22 22 23 22 22 23 30 35 32 35 47 42 44 43 38 38 44 50 59 74 74 87 91 99
70 67 65 57 54 51 46 42 39 41 46 44 40 37 38 39 39 38 37 36 34 35 32 32 42 47 46 49 51 52 42 32 54 60 62 62 64 72 74 75 82 87 91
73 68 63 57 54 50 49 44 42 42 41 38 36 36 41 43 39 35 36 37 42 47 45 52 33 25 33 28 20 13 4 3 4 5 16 21 34 48 65 71 62 47 38
75 71 63 59 56 52 51 45 42 38 35 33 33 36 31 26 28 30 30 35 39 49 57 37 24 6 4 4 3 3 2 2 2 2 2 2 2 2 2 3 3 3 3
79 74 68 62 60 55 54 47 34 32 24 21 23 23 23 25 27 26 27 28 37 44 37 25 12 5 6 6 6 5 5 5 5 4 4 3 3 3 3 3 3 3 2
82 78 74 68 64 59 55 52 33 25 22 20 21 24 28 28 28 28 25 24 24 24 22 17 12 10 10 11 10 10 10 10 9 7 6 6 6 5 4 3 3 3 3
84 81 79 75 72 67 62 59 44 26 24 22 24 28 30 31 29 27 25 25 26 25 22 20 19 18 17 16 16 16 15 13 12 10 9 9 7 5 4 3 3 3 3
93 92 90 85 81 77 72 70 65 39 26 24 24 26 30 32 31 30 28 27 28 28 26 24 23 23 23 24 25 25 24 21 16 13 12 12 11 8 5 4 4 4 4
97 98 98 98 94 90 86 83 82 73 47 28 25 26 29 31 32 32 31 30 31 32 31 30 30 32 33 34 34 34 32 30 25 18 12 11 9 6 4 4 4 4 5
95 94 96 96 96 99 94 92 93 85 78 59 32 26 27 30 32 33 33 33 34 36 36 36 36 37 38 38 38 37 36 33 26 16 10 8 6 5 5 6 6 7 8
94 94 96 98 98 100 100 92 94 90 90 87 73 38 26 28 30 32 34 35 36 38 38 37 37 37 38 37 37 39 38 30 18 10 7 6 5 6 8 9 10 10 12

GFSMW_700_rhum_045.txt.gz
RH
52 44 44 43 39 36 29 26 25 24 24 22 21 20 20 20 18 17 18 20 29 40 40 46 44 42 37 38 38 41 48 56 64 61 62 72 75 72 72 71 65 63 66
53 42 38 39 40 35 30 30 32 31 30 30 29 27 24 21 19 16 13 13 15 17 22 24 43 44 41 40 40 32 34 38 51 72 69 69 67 66 72 70 70 72 72
42 38 37 38 39 36 36 36 35 36 35 32 29 26 24 21 18 15 13 13 14 15 20 20 19 20 22 27 26 26 29 47 40 40 63 64 58 56 55 63 68 74 82
41 37 37 34 35 38 37 34 32 26 22 22 23 22 18 16 14 12 12 13 16 18 21 23 25 28 31 34 36 37 36 36 41 39 44 46 49 53 46 73 73 66 76
42 41 38 36 36 33 28 25 22 18 17 16 16 15 15 14 14 14 14 16 19 19 18 19 20 24 27 29 26 22 21 32 41 53 66 55 63 81 90 67 67 82 75
37 38 37 35 27 24 24 22 18 16 16 15 13 13 14 15 17 19 20 19 18 18 18 17 17 18 20 22 25 27 31 39 78 65 57 58 47 44 43 39 36 40 41
29 32 35 32 29 25 20 17 16 16 14 14 16 17 19 19 20 20 19 17 16 16 18 19 22 24 28 30 36 34 36 38 36 36 37 38 39 40 41 42 42 48 50
23 29 32 30 30 26 19 16 17 18 19 21 21 21 21 19 17 16 16 16 18 23 28 32 33 34 38 40 37 36 36 39 40 40 42 42 44 47 49 49 52 51 56
30 36 39 33 27 26 25 24 23 23 22 21 19 18 17 16 16 15 18 24 27 28 27 25 26 26 25 26 27 30 35 39 42 42 43 42 44 46 51 53 53 55 57
36 36 32 31 31 29 26 24 23 22 22 20 19 18 18 20 23 26 28 24 20 23 19 17 16 17 21 25 29 33 36 40 42 40 36 35 38 44 47 58 63 66 76
35 34 33 32 31 29 28 28 27 25 24 24 24 24 27 30 31 30 24 23 27 27 27 25 26 35 41 43 40 40 40 39 38 33 29 27 36 43 46 56 56 62 70
42 39 34 33 33 36 40 40 39 36 35 35 35 34 33 33 32 26 24 29 33 34 34 36 39 42 45 42 28 27 28 28 25 25 24 32 39 41 48 50 57 60 60
42 38 36 44 50 56 54 49 44 41 38 36 34 32 30 28 24 24 26 32 37 39 42 45 48 47 29 22 21 21 21 22 23 23 26 32 37 43 48 51 59 58 50
45 46 58 61 60 59 58 52 48 43 40 37 37 35 33 32 33 37 39 40 36 34 36 29 20 20 19 16 18 18 19 22 22 23 26 29 34 38 42 40 42 42 50
51 65 69 66 61 60 54 52 48 42 40 38 38 37 39 39 37 40 39 33 24 21 19 20 21 19 18 21 21 23 22 28 30 32 38 36 33 33 36 41 41 58 62
54 66 69 67 65 61 53 50 45 41 39 42 43 45 45 44 41 31 30 30 26 23 24 24 25 26 30 36 38 40 42 43 40 45 47 45 43 46 45 54 57 66 72
54 54 70 69 64 58 54 49 44 42 43 46 46 46 40 36 38 38 37 36 36 36 36 35 35 42 32 30 35 28 7 3 3 3 4 6 6 6 8 11 18 29 44
55 53 70 69 62 57 54 50 45 46 44 41 37 36 39 41 42 37 32 34 37 41 46 45 44 25 11 3 3 2 3 3 4 4 4 4 3 3 3 3 3 3 3
55 55 74 72 62 58 55 52 46 41 42 36 34 36 37 28 25 25 25 27 32 45 55 46 23 7 4 5 5 6 6 7 7 7 6 5 5 5 4 5 4 3 3
64 78 79 74 65 60 58 55 48 36 31 26 25 24 23 24 26 26 26 28 37 39 37 30 20 9 7 8 10 11 12 12 13 13 12 10 9 9 9 7 5 4 3
54 79 83 78 70 64 61 59 50 34 26 23 22 22 25 28 28 28 26 24 23 22 25 22 18 15 15 16 16 16 18 18 19 18 17 15 14 14 14 11 8 6 5
88 91 86 81 76 72 67 64 58 41 27 24 22 24 28 29 29 28 26 25 24 25 25 24 23 22 21 21 22 24 25 27 28 27 26 22 18 16 15 13 10 7 4
93 93 89 88 85 82 79 74 70 61 42 28 24 24 27 29 30 30 29 28 27 28 28 28 28 27 28 30 31 32 33 34 34 34 32 27 20 14 12 10 6 5 5
93 98 98 98 98 95 90 86 83 80 72 50 30 25 25 28 30 32 32 31 30 31 32 33 34 34 35 35 34 34 35 36 37 36 31 22 15 11 9 6 5 6 7
97 98 97 98 99 96 93 94 89 88 84 79 65 39 27 27 28 31 33 33 33 34 35 36 37 36 34 33 34 36 36 38 40 35 26 17 10 8 6 6 7 9 11
97 95 99 98 97 98 100 100 98 89 87 89 85 78 53 31 27 29 30 32 33 35 36 38 37 34 33 35 35 37 38 43 43 35 23 14 8 7 7 8 10 13 16

GFSMW_700_rhum_051.txt.gz
RH
57 52 46 48 44 40 39 39 39 38 36 36 39 40 40 37 32 29 26 24 25 25 24 21 17 17 19 27 30 33 37 28 50 53 30 25 28 28 33 35 42 52 61
62 61 56 52 51 48 46 43 41 38 36 33 28 28 27 27 28 30 30 30 28 27 25 23 19 16 21 22 25 34 32 31 25 25 22 23 24 30 31 34 43 45 50
62 61 58 56 53 53 53 47 40 37 35 33 32 32 31 31 32 31 28 25 23 22 22 21 20 30 27 24 20 20 31 23 22 26 28 26 22 18 20 30 35 42 58
60 61 58 54 53 53 54 47 40 38 37 37 36 36 36 34 27 21 17 16 17 16 16 16 16 16 16 18 20 21 21 21 20 20 22 23 22 28 31 39 65 57 43
58 50 45 43 42 43 42 39 38 38 39 38 38 35 32 26 21 18 16 15 13 13 13 13 14 16 18 18 19 20 20 20 19 19 21 27 43 45 43 40 42 35 37
80 66 46 44 45 43 41 39 38 40 39 37 35 31 26 23 19 15 13 12 12 12 13 14 16 18 19 20 20 19 19 20 23 34 36 49 76 41 38 37 37 37 37
58 59 51 45 46 46 46 45 45 44 43 38 30 25 20 16 14 13 12 12 14 16 17 18 19 19 17 17 18 21 26 31 41 47 50 83 57 40 39 40 42 37 26
44 38 41 42 43 48 49 47 44 42 39 35 31 24 20 15 12 12 14 15 17 18 18 17 16 16 18 24 30 32 34 37 37 35 51 34 37 38 40 42 35 25 27
26 30 27 28 37 45 49 51 46 41 37 30 25 21 17 14 15 17 18 17 17 17 17 18 20 26 28 24 26 23 20 19 21 25 33 38 39 41 41 32 26 26 28
23 25 24 24 28 41 48 43 42 39 34 29 24 21 20 20 19 18 18 17 16 17 20 27 30 28 25 28 28 27 26 29 37 42 44 42 38 33 29 24 24 28 30
25 21 25 30 36 41 41 44 40 35 32 30 27 26 24 22 21 20 19 19 21 25 28 32 31 27 32 34 35 36 39 45 49 49 36 30 27 23 25 25 26 29 29
28 35 46 50 53 46 38 36 33 32 30 29 27 26 27 28 30 29 28 29 30 32 33 32 25 27 34 38 43 48 52 48 29 25 21 20 20 23 24 24 25 27 25
44 44 45 44 44 44 40 36 34 35 39 42 42 41 39 38 36 35 33 32 32 31 30 26 28 37 41 42 44 32 24 22 19 19 19 20 22 24 25 26 27 26 25
44 48 48 50 48 44 46 54 58 57 55 52 48 44 41 38 36 35 35 34 34 34 34 36 39 37 31 24 22 21 21 24 24 27 32 39 43 44 39 38 39 36 33
57 52 45 50 46 57 68 69 67 62 58 53 48 44 40 37 36 37 38 39 37 39 40 36 26 22 23 24 26 31 33 37 40 41 22 8 18 28 28 24 18 11 5
65 56 51 45 62 72 70 67 66 64 59 51 45 40 39 39 41 44 45 42 44 38 29 26 24 27 30 36 31 32 35 25 10 4 3 4 5 5 5 6 5 5 5
66 65 49 54 56 56 64 69 65 59 54 50 45 43 43 45 50 51 50 41 34 34 31 32 34 36 37 12 9 4 3 3 4 4 6 7 10 11 11 11 10 11 11
64 51 51 59 58 54 54 69 65 58 54 50 45 42 38 39 45 42 40 40 39 40 40 38 40 42 22 7 3 4 5 6 9 11 13 14 16 17 18 17 17 17 18
58 55 61 62 56 56 56 73 66 59 56 52 40 34 35 43 46 45 43 40 41 40 42 43 48 20 7 4 5 7 10 13 15 17 19 21 24 26 26 26 26 24 22
55 58 60 59 58 64 77 77 67 60 57 50 35 30 35 34 33 34 34 36 37 40 48 56 35 19 16 14 13 17 19 20 22 25 28 30 31 32 32 32 31 29 23
58 59 59 61 59 59 82 81 71 63 58 47 29 25 28 28 30 33 33 32 32 39 43 35 31 28 21 21 22 23 26 29 32 32 32 32 35 34 33 34 30 23 18
62 66 62 63 63 70 88 84 74 67 62 48 29 24 24 28 30 31 32 30 26 25 25 25 24 25 26 27 29 32 34 35 33 33 36 37 37 37 37 32 24 18 14
66 66 67 66 69 84 97 86 78 74 69 59 40 28 24 27 30 31 31 29 27 27 27 27 28 29 30 33 35 36 35 33 34 36 40 43 43 42 38 32 25 17 12
71 72 71 76 96 98 96 92 90 87 84 80 68 46 30 26 29 30 31 31 31 31 31 31 31 32 34 36 37 36 34 33 34 38 48 49 48 46 44 35 26 17 11
86 98 100 96 97 97 98 98 97 93 90 89 91 85 63 38 29 28 29 30 31 32 32 32 33 33 34 36 37 37 35 34 35 43 50 53 53 46 48 41 28 19 13
73 96 98 98 98 99 98 98 98 98 97 96 92 89 88 84 68 48 34 30 30 30 31 31 32 32 33 35 37 38 37 36 36 42 49 54 58 58 48 48 42 28 17

GFSMW_700_rhum_054.txt.gz
RH
88 66 64 68 75 73 70 61 58 53 46 47 45 43 42 41 41 40 40 37 32 26 24 24 24 25 23 22 24 23 23 29 30 30 34 35 27 26 31 32 36 38 39
79 65 61 59 59 56 53 48 46 44 41 39 35 33 32 33 32 29 27 27 28 30 30 30 28 27 25 27 32 28 32 33 28 26 33 28 23 23 24 24 22 22 29
70 74 58 52 51 50 47 45 44 44 44 44 42 38 36 33 31 32 34 33 32 30 26 22 21 21 23 25 25 30 40 38 34 27 30 22 23 22 20 20 25 35 38
63 73 65 60 57 52 52 49 47 46 42 39 37 34 34 33 33 32 31 29 24 18 15 14 14 14 15 16 17 18 20 21 21 20 19 19 19 19 22 34 48 37 38
71 73 66 63 60 54 52 50 49 47 40 38 35 34 34 35 35 32 29 24 19 16 13 12 12 13 14 16 18 19 20 21 22 20 18 19 22 31 41 54 52 30 38
78 70 65 62 60 56 54 50 49 46 40 36 38 40 37 34 33 29 24 22 19 15 13 13 13 14 15 17 19 20 20 18 18 20 32 30 45 52 57 75 41 34 37
81 82 73 63 50 47 44 43 42 42 42 40 38 37 36 32 27 24 20 16 14 13 12 12 13 14 16 18 18 16 17 19 25 31 39 72 74 49 49 58 40 39 38
54 54 74 83 61 51 51 45 49 50 48 48 46 44 40 35 32 27 22 17 14 13 14 16 17 17 16 15 16 17 24 26 23 24 28 37 36 54 57 44 44 39 32
38 40 55 58 57 75 59 49 53 55 53 51 47 41 36 32 27 23 19 16 17 17 17 17 16 16 16 18 23 26 24 25 25 21 20 24 34 41 45 46 45 39 30
26 27 33 40 45 43 47 46 49 54 55 54 46 38 33 28 24 20 19 18 19 18 17 17 17 18 22 28 29 25 27 30 30 30 37 44 50 49 43 40 38 31 28
32 28 25 28 29 28 30 44 54 57 56 46 42 36 31 27 24 22 21 20 19 18 18 19 22 24 29 31 27 29 34 36 39 43 49 50 39 31 27 25 24 24 24
34 31 26 22 26 31 38 54 57 56 49 42 34 30 28 26 23 22 21 22 23 24 26 27 29 29 32 30 26 32 40 43 44 44 27 23 22 19 19 22 23 22 25
47 40 36 32 38 47 57 60 56 46 39 35 32 30 30 31 33 31 30 31 31 31 33 32 32 33 30 29 37 41 42 36 23 21 21 20 23 27 31 31 25 28 32
52 51 46 45 45 46 45 44 42 41 42 49 53 49 48 47 44 39 36 34 33 34 34 37 38 36 41 43 38 27 23 22 23 26 25 32 28 32 36 38 37 39 35
57 61 56 49 49 50 49 45 51 58 59 57 57 57 51 45 43 40 37 36 37 37 38 41 43 41 36 26 23 24 28 32 33 35 32 7 3 4 4 5 5 4 5
60 64 62 57 49 50 47 60 66 67 64 62 60 55 50 44 40 39 38 42 45 46 45 46 39 28 24 25 30 32 27 30 29 10 3 4 5 7 8 10 10 10 10
61 64 67 59 60 49 62 64 64 69 66 62 56 51 47 44 41 40 49 53 53 52 42 32 28 27 31 36 26 16 5 3 3 4 5 8 11 13 15 16 17 17 18
60 60 62 63 58 54 60 58 54 63 69 62 55 52 47 44 40 39 45 46 45 40 36 34 35 36 41 13 4 3 4 5 7 9 12 15 17 19 21 24 25 26 26
54 62 61 64 52 58 61 57 54 62 72 62 56 53 45 36 40 44 47 47 46 43 43 44 43 45 32 14 4 6 8 10 14 17 19 22 25 29 29 30 31 31 30
38 61 61 51 49 51 56 58 60 78 74 62 59 52 37 33 43 43 46 46 47 49 52 51 50 34 10 8 11 14 17 20 22 24 29 31 30 32 35 34 33 32 31
37 62 56 55 56 60 62 65 71 83 75 66 61 44 29 31 35 37 37 39 40 45 55 58 45 24 22 20 20 22 24 26 30 33 31 31 36 38 38 38 36 33 29
43 62 60 60 63 65 65 63 81 86 78 69 61 38 26 27 31 35 36 34 34 40 45 38 32 27 24 25 27 28 31 34 34 31 31 34 39 44 45 44 40 32 27
45 49 65 69 67 69 67 67 78 89 92 84 64 44 29 25 27 32 35 37 30 26 26 26 26 27 28 30 32 34 36 36 33 32 33 37 43 44 48 48 46 41 31
73 69 69 71 71 70 68 67 90 96 96 86 80 79 44 29 26 29 31 31 30 29 28 28 29 30 31 32 34 36 37 36 34 32 33 36 42 43 50 53 48 46 40
78 76 74 80 82 78 76 89 100 98 97 97 97 96 90 66 33 28 29 30 31 32 32 32 32 32 33 34 35 36 36 36 35 34 34 35 41 46 50 54 59 54 48
78 80 87 96 98 98 98 98 99 98 99 98 97 97 97 96 88 59 35 30 30 31 32 32 32 32 33 34 34 34 35 36 36 37 37 37 41 46 51 56 65 68 70

GFSMW_700_rhum_057.txt.gz
RH
76 82 77 73 72 70 71 66 56 51 49 46 42 38 38 39 41 41 41 41 41 41 37 30 25 26 27 29 29 32 33 35 36 37 34 36 33 30 30 23 26 29 24
76 76 78 73 72 74 68 70 60 54 51 46 47 48 46 45 43 43 41 40 34 29 28 29 32 32 34 33 34 34 36 37 43 47 54 47 32 26 20 18 23 20 23
74 80 77 71 71 75 76 73 70 62 58 55 53 46 43 38 34 31 29 29 30 32 33 33 31 27 24 20 20 21 26 26 24 26 28 28 22 22 24 18 18 25 42
75 83 68 70 67 66 66 65 58 50 46 43 42 41 42 40 38 37 35 34 33 33 33 30 23 17 14 14 13 14 16 18 20 21 21 22 22 20 20 22 31 41 64
70 84 92 70 68 66 56 53 51 47 48 48 45 42 39 37 34 34 35 35 33 31 29 25 21 18 14 12 12 13 16 18 20 21 22 20 19 22 28 36 51 51 59
50 78 79 69 70 70 59 64 57 50 50 49 49 43 41 40 43 44 37 34 31 28 23 20 17 14 13 12 13 15 18 20 20 19 19 21 27 34 44 66 66 48 46
61 57 61 77 74 71 64 59 55 54 54 59 53 46 44 44 42 38 36 33 29 25 24 20 14 12 13 14 16 18 19 18 18 19 24 32 34 38 88 82 67 39 41
38 62 75 75 72 65 64 61 58 63 66 71 54 45 42 43 45 44 42 37 33 29 25 20 14 13 15 16 16 17 16 18 21 27 26 26 26 26 34 49 89 90 43
41 43 61 79 74 71 72 69 63 60 57 56 53 50 50 49 48 45 38 33 29 25 22 17 15 16 17 17 17 17 20 25 28 27 26 28 27 26 30 39 60 51 45
30 35 41 44 58 56 67 75 78 75 65 60 58 56 54 53 50 42 32 27 24 22 19 18 17 18 18 16 18 22 28 30 29 30 33 32 34 39 45 52 50 40 37
32 29 26 28 30 38 45 52 71 73 79 78 66 61 54 50 43 33 30 27 24 22 20 19 19 19 19 21 24 29 34 32 30 36 40 42 47 49 44 31 27 24 25
31 35 31 29 28 31 36 40 54 71 74 68 63 62 56 46 39 31 26 23 22 21 21 22 24 25 27 28 32 35 35 31 33 41 46 50 35 23 22 20 20 22 23
30 37 39 33 30 28 29 30 35 43 56 68 67 59 48 36 31 30 29 30 31 31 30 32 32 34 34 33 34 35 34 35 44 46 39 25 22 22 28 33 36 37 30
45 44 47 39 43 45 40 39 48 56 60 56 45 37 34 33 33 34 36 38 38 37 37 35 36 37 39 39 39 38 44 48 39 25 23 26 26 30 24 22 25 25 20
53 52 50 52 45 46 47 49 49 46 44 41 40 42 47 49 50 47 46 42 39 38 38 36 37 39 43 46 47 47 41 28 24 26 31 33 26 4 4 5 6 7 8
45 58 61 60 60 54 45 47 48 46 46 51 59 61 58 55 54 50 46 41 38 38 39 41 44 47 49 49 39 28 25 31 36 36 37 16 4 5 6 9 12 14 14
35 42 61 60 61 58 54 50 47 47 58 65 64 63 61 56 52 48 44 42 39 43 49 52 51 49 40 31 28 33 35 28 17 7 3 4 6 10 13 15 17 19 21
46 35 56 67 64 62 54 50 45 56 59 53 58 66 62 55 52 49 43 38 38 45 56 54 42 35 31 31 40 22 5 3 4 6 8 11 14 17 19 22 25 27 28
54 41 39 63 68 63 58 62 48 60 58 54 54 69 63 56 53 47 36 35 43 47 44 42 38 37 39 42 8 4 5 6 8 12 16 18 21 24 27 28 28 32 33
55 47 39 53 68 63 64 66 53 57 54 54 63 72 64 59 52 37 35 42 49 50 49 45 44 44 47 26 8 6 10 14 18 21 24 27 30 30 29 33 36 37 36
66 55 42 58 69 63 58 54 59 58 60 66 79 76 65 58 40 29 36 38 46 50 53 52 51 50 37 12 9 16 19 22 25 28 32 32 30 31 36 40 41 43 44
53 61 49 65 64 55 57 61 62 62 59 67 84 77 66 51 30 30 36 35 42 45 51 54 57 46 22 19 22 22 25 28 31 34 34 31 30 33 38 40 41 46 48
66 59 52 64 66 62 64 67 70 67 63 68 84 86 78 65 30 28 39 58 36 35 43 49 38 30 26 25 26 28 31 33 35 36 33 31 31 33 38 39 41 46 51
77 76 72 64 68 69 70 70 71 69 66 68 84 98 95 43 53 63 31 37 36 36 28 26 26 26 27 28 30 32 34 36 37 36 35 33 33 33 36 40 42 45 49
79 78 79 79 77 76 75 73 72 72 75 84 99 99 85 93 94 73 54 45 36 32 30 29 29 29 30 31 32 33 34 36 36 36 36 36 35 35 37 40 44 47 50
91 80 76 79 91 90 98 98 98 99 97 100 98 100 98 97 95 94 78 54 31 31 32 32 32 32 32 33 33 33 34 34 35 36 36 37 37 38 39 41 44 46 48

GFSMW_700_rhum_060.txt.gz
RH
72 68 72 73 65 64 58 59 59 61 58 55 51 48 48 47 40 34 36 38 39 40 37 37 36 28 26 30 33 36 36 35 38 37 46 45 54 53 46 19 19 18 19
62 72 64 75 79 71 67 65 65 66 59 53 52 50 47 43 43 43 41 42 42 40 34 29 27 29 32 32 32 30 28 23 23 22 28 23 18 20 20 18 18 19 20
64 74 72 63 75 74 70 70 69 70 62 55 52 48 45 47 51 56 46 38 33 30 29 29 30 30 32 30 25 19 17 15 14 16 19 20 20 19 19 22 20 21 23
73 70 72 65 61 73 69 72 71 71 69 60 55 57 61 59 58 52 39 38 36 34 33 33 32 32 32 28 23 20 17 14 14 15 18 21 23 22 21 23 25 31 34
69 71 72 73 62 65 73 72 76 78 75 73 65 61 58 48 43 42 41 38 36 36 37 36 33 30 27 24 20 16 14 14 14 16 19 20 21 21 22 25 31 41 55
50 62 72 81 74 62 64 71 69 68 65 56 48 49 50 48 48 43 41 40 41 41 36 34 31 26 23 22 17 14 13 14 15 17 20 20 18 21 28 36 44 67 100
63 53 85 81 86 77 68 72 72 67 56 54 61 70 62 64 60 48 45 44 41 38 38 38 34 31 28 23 18 14 15 17 18 18 18 20 25 29 31 32 44 97 99
60 62 46 55 68 66 85 74 75 69 61 64 72 76 64 64 66 57 51 45 45 44 41 38 34 30 26 21 16 15 17 17 18 18 20 25 29 28 30 69 89 72 56
39 43 53 41 36 69 82 73 76 75 63 61 63 61 64 70 76 68 56 49 47 46 42 35 28 25 22 19 17 17 18 18 18 19 26 29 28 28 34 33 38 46 47
31 32 38 40 35 68 81 74 69 80 78 75 65 63 64 62 57 54 55 54 51 44 36 26 24 23 21 20 19 19 19 21 23 26 31 31 30 36 38 42 48 53 47
36 37 34 33 37 40 58 80 77 70 57 73 93 90 80 73 70 65 60 56 50 36 30 26 23 21 20 20 22 24 25 26 32 34 35 33 33 40 47 54 48 33 26
34 36 32 34 34 30 29 30 41 69 64 76 82 84 74 82 85 84 71 51 42 31 25 23 22 24 28 31 31 34 38 36 36 38 37 34 40 48 51 32 24 20 24
40 28 36 31 32 33 30 29 30 35 39 61 81 83 86 81 73 65 52 37 31 28 24 24 27 31 33 37 39 40 43 43 41 39 37 47 52 37 24 23 28 31 33
51 44 35 34 34 40 37 30 30 32 37 42 56 67 74 75 63 42 37 36 38 34 38 35 32 35 37 36 39 41 44 47 46 44 50 51 31 24 26 29 19 19 20
48 49 48 45 43 48 43 43 43 45 47 52 57 60 53 43 41 45 48 48 50 46 43 40 36 35 36 37 41 43 48 51 56 53 40 28 28 30 29 4 5 6 8
43 41 36 38 40 57 55 49 47 48 49 49 48 47 48 56 61 58 55 54 52 47 43 39 36 36 40 43 45 48 54 56 47 29 28 36 40 31 4 6 8 12 14
59 47 44 33 35 57 61 58 53 50 52 51 48 54 66 66 63 60 57 54 49 47 43 38 36 44 51 51 49 49 41 32 35 40 41 36 9 5 7 11 15 17 20
54 52 53 47 34 51 66 64 61 56 50 47 50 65 56 52 58 63 59 55 51 46 37 35 39 53 54 47 41 33 36 39 25 11 4 5 7 11 15 18 22 25 28
61 55 51 55 42 37 58 68 68 65 63 56 57 61 55 51 56 65 60 55 49 37 36 45 46 46 42 38 37 43 20 4 4 6 8 11 16 18 23 26 29 30 34
68 61 57 61 55 48 39 65 73 70 68 68 62 61 54 54 64 68 60 54 37 32 43 52 51 48 44 42 46 12 4 6 9 12 16 20 24 27 30 30 34 37 40
64 70 55 62 55 45 50 71 75 72 72 65 66 60 60 64 77 70 59 38 30 37 46 57 56 54 51 53 23 7 6 11 17 21 24 28 32 32 31 34 38 40 39
55 75 68 57 60 58 74 69 64 67 66 66 63 61 59 65 80 71 49 30 34 39 42 51 62 64 61 47 17 9 16 20 24 27 31 35 34 32 33 35 39 39 38
54 72 78 74 63 69 72 62 65 67 68 68 68 65 64 66 80 85 46 37 38 54 46 46 59 66 55 25 18 22 23 26 29 32 36 36 34 33 33 35 38 38 40
64 68 81 82 79 71 75 76 74 73 73 73 73 71 71 76 88 100 97 61 37 62 70 35 46 42 31 27 26 26 28 30 32 35 37 37 36 35 34 34 36 38 41
69 76 86 84 83 84 80 78 79 80 81 80 77 78 80 85 99 98 51 44 67 39 48 41 30 27 26 27 28 29 31 32 33 35 36 37 37 37 36 36 37 39 41
57 89 89 100 89 88 96 93 91 99 95 86 100 100 97 91 99 100 98 96 89 92 80 60 34 31 32 30 31 32 33 33 34 34 35 36 38 37 38 38 39 40 41

GFSMW_700_rhum_063.txt.gz
RH
60 59 73 78 72 63 66 64 58 57 54 49 46 47 48 52 51 43 46 47 35 38 39 40 40 36 30 27 29 30 30 29 24 18 14 13 12 14 23 21 19 18 19
63 64 55 66 72 72 72 69 62 64 60 60 59 56 55 52 52 55 49 40 40 43 43 42 33 28 28 30 31 31 30 26 21 18 16 13 11 13 17 17 16 18 18
59 62 56 49 60 69 74 69 71 67 64 62 63 57 54 54 56 49 44 44 47 47 40 34 32 33 33 32 31 32 29 26 23 20 17 15 12 14 16 17 19 21 18
72 61 63 60 55 60 64 69 63 68 71 67 68 60 57 60 58 53 52 57 52 39 39 39 38 36 33 32 30 28 26 22 18 16 15 16 17 19 18 19 20 21 21
75 63 62 64 64 66 65 60 68 71 72 77 78 75 75 73 63 63 61 57 50 43 42 40 39 38 37 33 31 27 24 24 20 15 15 16 18 20 22 18 21 26 35
60 70 64 69 71 73 67 62 63 73 68 71 77 83 78 78 79 65 55 52 51 44 42 41 43 39 36 34 33 30 29 25 19 14 16 18 19 18 19 20 27 38 50
66 53 57 67 68 70 69 71 63 65 73 75 74 78 77 71 66 61 59 64 63 51 48 43 40 41 42 39 36 32 28 24 18 15 16 17 17 18 21 27 32 34 49
60 62 52 50 65 74 81 79 73 78 72 79 76 66 55 57 64 68 73 76 90 85 58 58 46 45 44 40 33 28 26 22 18 17 17 19 20 22 27 31 32 33 79
58 61 62 63 58 61 65 73 64 81 83 78 76 62 59 65 75 84 87 72 73 73 70 58 49 47 43 35 27 24 22 21 19 19 18 19 22 27 32 32 37 65 72
36 40 46 47 50 44 49 48 71 85 70 76 83 86 82 74 68 76 74 65 63 59 58 58 52 45 34 28 26 23 21 21 22 22 23 25 27 31 33 35 39 42 47
40 39 38 39 38 37 40 47 68 83 72 69 78 92 88 82 86 77 70 69 65 68 66 54 47 34 29 24 23 23 24 23 29 32 33 36 36 36 37 39 46 47 51
42 37 39 36 33 32 34 32 38 74 84 76 76 80 81 75 70 88 90 80 89 80 80 84 70 32 26 26 28 29 29 31 32 34 38 39 40 40 40 47 53 44 26
46 38 39 36 35 33 30 29 32 30 30 41 51 64 80 75 80 85 92 84 82 72 59 43 32 30 30 32 34 35 36 37 36 38 40 40 41 40 48 55 37 25 28
70 61 48 38 33 32 30 27 29 34 31 29 34 39 45 72 85 87 88 68 70 54 39 38 38 39 40 40 38 36 39 38 40 42 44 47 46 51 54 31 26 32 23
62 56 48 44 42 43 42 48 49 42 39 37 35 38 42 49 64 68 66 51 44 51 55 53 51 48 45 42 39 37 41 45 46 48 52 54 56 51 28 28 31 5 5
44 40 38 39 37 35 35 48 59 50 45 44 47 52 56 61 54 48 48 54 59 59 56 53 50 47 44 39 37 44 47 54 57 56 61 60 36 29 34 37 5 6 8
49 50 46 44 46 38 26 32 64 61 53 49 49 50 51 51 52 63 67 61 60 60 57 52 49 45 40 36 39 53 55 57 57 56 39 34 40 45 34 4 6 11 15
76 62 51 44 44 46 43 29 60 65 63 59 53 52 51 53 68 60 52 50 55 63 58 53 48 39 36 40 51 56 53 48 38 40 51 50 31 7 6 10 13 18 22
64 59 55 53 47 48 53 46 44 70 68 67 67 65 61 57 63 59 52 50 62 65 58 51 37 37 47 49 49 46 42 46 30 13 6 5 8 11 15 19 23 29 31
57 48 48 61 53 53 59 52 44 52 77 74 74 75 73 64 64 58 58 71 74 66 55 35 35 47 53 52 48 46 44 11 5 7 10 13 17 21 26 30 32 32 36
33 32 37 51 61 48 60 50 46 51 80 85 80 79 77 69 65 61 66 80 78 64 37 35 42 53 56 55 54 51 15 5 8 11 17 22 27 31 33 33 32 35 38
35 24 26 52 68 59 56 56 61 73 74 71 72 76 71 71 66 63 65 78 78 64 33 41 46 53 60 59 57 42 10 7 13 19 24 28 32 35 35 33 33 36 38
44 30 30 58 76 72 67 67 73 68 69 70 70 71 73 71 70 69 74 83 87 77 49 57 50 47 66 69 61 32 11 13 21 25 29 33 36 37 36 34 34 34 36
49 44 34 72 77 81 81 74 79 74 69 71 74 77 76 77 76 76 81 90 95 99 68 58 65 50 68 64 36 20 19 23 26 29 32 35 38 38 37 36 36 36 36
53 56 39 64 82 91 85 89 89 85 82 80 80 81 84 83 82 83 92 87 100 92 59 56 66 45 38 34 28 26 26 28 29 31 33 35 37 38 38 39 46 78 41
58 54 58 47 88 98 100 92 100 100 99 99 100 95 89 91 100 100 100 100 100 69 61 78 60 50 32 28 28 28 29 30 31 32 34 35 39 57 58 88 89 64 52

GFSMW_700_rhum_066.txt.gz
RH
56 57 67 64 62 64 70 74 80 64 62 61 58 57 53 53 46 46 48 52 44 44 43 37 40 41 41 31 26 28 30 28 29 26 24 22 21 18 14 13 15 18 19
60 53 55 69 68 66 64 67 74 69 59 55 57 55 57 57 53 53 54 47 44 50 39 42 43 46 38 30 31 31 30 28 28 26 24 21 19 17 14 12 15 19 18
54 54 50 57 64 70 69 70 67 70 67 68 73 68 66 60 58 53 50 48 53 48 48 47 47 42 34 35 34 33 31 30 28 27 24 21 18 14 13 13 17 20 21
47 53 59 54 55 57 58 65 66 68 70 70 76 76 74 77 74 73 70 60 59 56 58 49 41 39 39 39 37 36 34 31 29 28 28 25 20 16 13 16 20 22 22
49 55 58 59 61 66 66 63 65 69 71 75 72 75 76 87 92 90 77 80 75 79 87 91 54 44 45 44 42 38 36 36 34 32 29 24 18 16 18 18 22 22 22
62 70 72 67 64 65 66 68 73 65 64 69 74 72 84 76 80 83 88 93 90 89 89 82 58 49 49 48 44 42 41 39 36 33 29 24 19 17 19 19 20 25 26
61 68 74 77 72 66 66 71 73 72 70 66 70 75 84 83 92 95 98 89 90 93 72 64 58 58 56 77 61 51 44 41 36 30 27 23 20 18 19 20 23 29 35
60 61 63 57 68 71 74 74 74 74 78 82 79 75 76 85 85 91 88 94 70 66 78 78 76 78 78 78 57 50 45 40 33 27 24 23 22 21 20 21 25 32 37
54 55 54 59 55 60 70 75 79 85 88 85 75 83 82 86 83 74 72 73 74 82 89 92 80 78 72 58 63 53 42 30 25 24 23 23 25 27 26 25 28 35 37
38 42 52 58 55 53 58 61 63 65 63 61 77 78 72 70 75 74 74 84 91 94 94 92 72 64 62 61 57 38 29 25 24 23 24 26 28 33 36 33 34 37 39
43 42 40 38 40 41 45 44 44 46 52 77 86 75 74 90 98 96 89 86 86 73 76 85 81 83 78 81 62 57 34 24 25 29 32 32 35 37 41 39 41 40 41
40 39 39 42 41 42 40 35 33 33 38 58 84 83 82 83 85 83 88 85 82 87 90 86 80 77 76 71 66 66 36 33 33 34 36 39 40 45 47 47 44 43 49
43 40 38 35 36 38 36 33 30 28 31 32 47 81 82 80 84 85 86 89 91 88 88 89 85 73 60 41 37 39 38 39 40 37 39 41 43 46 47 46 47 52 60
68 61 54 49 42 38 36 30 29 28 28 30 33 33 41 56 62 57 74 85 92 91 91 75 62 45 45 43 47 47 44 42 39 40 42 43 48 54 54 53 57 68 40
65 64 62 58 52 39 37 39 41 38 37 40 38 38 35 39 44 46 60 76 78 73 61 47 51 56 54 52 48 46 43 40 38 42 48 50 52 59 62 65 64 37 32
66 57 41 39 40 37 37 38 36 40 42 50 45 43 43 43 47 58 70 68 54 52 58 61 60 58 55 50 47 44 41 37 39 51 53 60 64 64 68 54 34 33 24
51 40 41 42 42 41 38 32 32 34 35 52 52 50 52 54 56 54 53 54 62 61 51 48 52 58 55 51 46 41 35 36 48 55 59 66 73 62 41 39 43 28 5
56 50 48 46 46 44 45 36 33 44 38 62 60 58 55 56 56 54 53 67 61 53 49 48 56 60 56 50 41 34 38 46 54 56 56 48 46 48 58 50 11 7 12
61 58 54 50 46 44 49 49 38 43 48 56 68 64 66 66 63 61 58 63 62 56 57 64 69 62 52 40 31 43 48 48 47 46 50 52 48 30 9 7 12 18 24
48 38 44 42 36 39 42 55 47 51 55 52 74 72 74 76 74 73 67 64 64 60 69 77 71 58 38 33 45 52 48 46 48 16 5 5 7 11 16 21 24 30 33
37 35 30 29 25 25 33 59 47 56 57 65 82 83 80 79 80 78 73 68 62 60 63 75 72 46 36 44 54 56 51 50 12 6 9 12 16 22 28 32 35 35 36
41 37 34 33 32 23 38 66 54 55 53 60 66 82 88 85 83 82 74 70 66 65 65 73 73 46 44 48 58 60 60 36 7 30 18 22 27 31 33 36 36 35 36
49 49 44 43 40 31 54 71 70 60 72 75 74 73 72 74 81 79 79 73 72 71 72 73 77 70 69 54 61 68 64 18 9 10 18 24 29 34 37 37 36 35 36
56 54 51 50 50 38 63 75 80 76 76 76 75 79 79 78 80 84 83 80 79 79 78 75 92 98 72 64 66 74 56 19 13 19 24 28 32 36 38 38 38 37 37
30 52 57 55 53 51 56 82 87 88 85 80 81 77 78 81 85 84 84 86 86 82 83 91 89 60 70 70 64 61 28 19 21 25 28 30 33 36 38 39 39 40 41
17 13 15 43 62 57 54 65 100 100 99 100 95 94 98 96 94 94 93 92 95 99 100 100 92 80 69 54 38 30 26 25 27 32 64 46 34 37 39 39 46 68 88

GFSMW_700_rhum_069.txt.gz
RH
58 58 60 68 66 62 75 75 74 76 82 79 90 86 82 74 68 68 61 58 53 53 50 42 48 38 41 41 42 32 30 31 32 30 30 28 27 24 21 18 15 14 15
53 60 68 70 68 64 69 74 76 80 73 78 73 75 77 76 68 60 55 56 57 62 56 51 47 44 46 47 47 34 34 33 33 35 32 29 27 26 24 22 17 15 16
56 54 55 69 74 71 70 69 65 68 68 61 59 60 64 69 65 59 58 56 60 68 52 59 53 55 56 51 41 39 38 34 37 36 35 32 30 27 25 23 18 16 18
50 56 54 55 58 69 74 77 74 82 78 74 83 82 74 80 71 72 75 62 66 65 81 80 70 71 72 51 48 44 42 41 37 37 38 38 35 31 28 24 19 17 19
50 54 55 52 63 64 65 69 73 77 79 76 78 82 91 94 97 89 92 93 86 85 88 85 92 80 78 70 76 50 46 47 46 50 46 41 36 31 28 24 21 20 20
61 62 63 68 68 65 65 71 70 69 67 66 67 69 78 90 92 88 100 96 90 92 94 97 97 97 99 96 60 54 59 72 60 54 47 43 38 31 27 25 24 24 23
62 68 68 67 71 73 70 74 74 72 72 70 71 74 77 79 92 96 100 95 92 97 96 100 100 96 72 63 69 68 77 81 75 57 53 47 35 28 26 25 25 28 26
60 65 65 64 67 72 76 80 79 74 75 71 76 78 80 88 88 91 99 98 100 100 100 100 92 77 74 90 85 82 81 73 62 65 56 38 28 26 25 25 29 29 31
47 55 64 67 68 70 69 72 75 77 77 78 87 92 90 76 80 88 99 96 100 98 99 84 85 90 98 88 92 71 70 66 60 56 32 26 25 24 27 28 30 35 37
53 50 47 54 61 65 70 71 71 71 71 71 71 68 71 68 79 78 85 88 85 91 88 92 85 82 77 77 77 74 72 77 74 68 60 36 31 30 32 35 35 35 42
46 42 39 40 42 45 49 54 59 57 58 49 58 51 59 81 77 70 70 80 87 93 90 83 80 79 84 89 88 82 79 66 60 65 70 43 36 36 38 38 40 41 47
44 44 45 46 44 44 43 42 38 34 33 35 37 46 61 84 77 78 81 88 97 91 95 90 90 82 73 82 84 80 57 48 38 39 38 38 39 40 41 43 44 49 52
46 43 41 40 38 37 38 38 36 33 31 29 26 31 38 82 85 87 90 90 90 90 94 94 96 91 90 84 72 48 40 40 42 44 46 44 42 42 42 43 50 55 57
54 51 48 46 46 45 43 40 36 32 30 28 27 25 29 36 68 88 91 92 93 90 86 95 95 93 78 58 43 45 47 49 49 48 46 44 41 43 47 48 56 60 61
56 53 52 54 51 46 38 35 35 36 34 36 38 38 31 32 36 37 40 46 53 60 74 84 69 60 48 53 55 56 53 51 47 45 43 40 39 47 54 56 61 66 68
60 58 59 56 48 34 28 27 28 32 34 37 38 41 45 43 43 45 44 50 57 61 65 61 51 58 58 53 54 56 54 49 46 42 37 37 45 58 63 68 69 73 75
77 66 54 42 36 34 33 34 31 29 30 34 33 34 44 50 46 55 60 64 67 61 55 57 61 52 49 48 50 54 52 48 41 36 37 45 57 64 70 76 78 61 43
63 59 56 51 46 44 42 40 39 33 30 35 39 35 39 60 50 53 58 57 57 56 58 64 57 52 51 53 59 59 51 39 34 41 48 56 61 65 64 54 48 46 46
63 59 58 52 42 35 35 33 33 34 33 40 43 48 47 69 60 58 60 61 58 55 59 61 58 55 61 68 66 54 37 35 46 49 48 48 50 57 62 63 51 16 8
72 67 57 53 38 29 27 27 25 25 30 45 48 56 54 72 70 68 68 68 67 67 65 65 61 60 69 72 64 43 38 46 51 48 47 29 15 9 8 8 11 16 22
41 38 37 35 33 29 26 27 25 22 30 49 50 64 63 63 77 73 72 76 76 76 72 70 65 66 67 62 59 42 44 52 54 49 16 6 8 12 16 21 26 30 33
44 43 43 42 39 37 34 32 31 25 44 60 55 61 71 74 85 80 78 81 82 81 75 72 70 70 67 64 65 46 51 56 58 38 8 14 14 19 23 28 32 35 36
41 46 50 51 50 45 42 39 36 34 61 71 68 72 72 78 82 91 92 89 91 87 80 76 75 74 72 70 72 67 61 58 65 33 8 57 57 46 43 34 36 37 36
12 12 13 16 38 54 55 52 48 40 70 81 82 82 82 77 77 76 76 84 94 91 85 82 80 79 75 74 85 97 69 67 68 31 10 14 21 34 37 33 38 39 38
24 24 23 23 21 16 23 62 60 55 61 96 95 95 88 82 85 84 84 88 90 90 88 88 86 82 79 92 74 70 66 73 61 30 14 19 25 28 32 35 38 39 39
22 22 25 26 26 22 20 15 38 65 61 80 100 100 100 97 90 87 86 90 90 90 91 91 88 88 93 94 67 71 66 65 39 20 21 26 28 31 32 34 36 38 39